This demonstration page uses our WeatherBlox Daily Observations layout. Learn more.

Left ArrowRight Arrow

31.84235, -102.49876

Hourly Observations for August 24, 2017

Temp ( °F °C ) Dew Point ( °F °C ) Humidity (%) Winds ( mph kmh ) Pressure ( in mb ) Visibility ( mi km ) Precip ( " mm )
12:53 am 00:53 Mostly Cloudy 75 23.9 68 20 79 79 E 12 19 29.93 1013 10 16 0.00 0.00
1:53 am 01:53 Mostly Cloudy 74 23.3 68 20 82 82 E 8 13 29.93 1014 10 16 0.00 0.00
2:53 am 02:53 Clear 73 22.8 69 20.6 87 87 ENE 7 11 29.92 1013 10 16 0.00 0.00
3:53 am 03:53 Clear 72 22.2 69 20.6 91 91 NE 7 11 29.91 1013 10 16 0.00 0.00
4:53 am 04:53 Clear 71 21.7 69 20.6 94 94 ENE 7 11 29.89 1012 10 16 0.00 0.00
5:53 am 05:53 Clear 70 21.1 68 20 93 93 ENE 6 9 29.90 1013 10 16 0.00 0.00
6:53 am 06:53 Clear 70 21.1 68 20 93 93 ENE 7 11 29.90 1012 10 16 0.00 0.00
7:53 am 07:53 Sunny 70 21.1 68 20 93 93 ENE 5 7 29.91 1013 8 13 0.00 0.00
8:53 am 08:53 Sunny 72 22.2 69 20.6 91 91 E 9 15 29.91 1013 9 14 0.00 0.00
9:53 am 09:53 Mostly Sunny 76 24.4 67 19.4 74 74 SE 12 19 29.92 1013 10 16 0.00 0.00
10:53 am 10:53 Partly Cloudy 79 26.1 67 19.4 67 67 SE 10 17 29.91 1013 10 16 0.00 0.00
11:28 am 11:28 Mostly Cloudy 79 26.1 66 18.9 65 65 SE 7 11 29.88 1012 10 16 0.00 0.00
11:53 am 11:53 Partly Cloudy 81 27.2 66 18.9 61 61 SSE 8 13 29.91 1013 10 16 0.00 0.00
12:53 pm 12:53 Mostly Cloudy 82 27.8 66 18.9 58 58 SE 8 13 29.90 1012 10 16 0.00 0.00
1:53 pm 13:53 Mostly Cloudy 84 28.9 65 18.3 53 53 SSE 9 15 29.87 1012 10 16 0.00 0.00
2:53 pm 14:53 Partly Cloudy 86 30 63 17.2 46 46 VRB 5 7 29.84 1010 10 16 0.00 0.00
3:53 pm 15:53 Sunny 87 30.6 62 16.7 43 43 ESE 10 17 29.81 1010 10 16 0.00 0.00
4:53 pm 16:53 Mostly Cloudy 90 32.2 59 15 35 35 NE 9 15 29.81 1009 10 16 0.00 0.00
5:53 pm 17:53 Mostly Sunny 83 28.3 64 17.8 53 53 NW 17 28 29.81 1010 10 16 0.00 0.00
6:53 pm 18:53 Sunny 82 27.8 64 17.8 55 55 N 9 15 29.79 1009 10 16 0.00 0.00
7:53 pm 19:53 Sunny 81 27.2 63 17.2 54 54 N 8 13 29.78 1009 10 16 0.00 0.00
8:53 pm 20:53 Clear 79 26.1 64 17.8 60 60 N 5 7 29.81 1009 10 16 0.00 0.00
9:53 pm 21:53 Clear 78 25.6 65 18.3 64 64 NNE 5 7 29.84 1010 10 16 0.00 0.00
10:53 pm 22:53 Mostly Cloudy 80 26.7 64 17.8 58 58 E 10 17 29.85 1011 10 16 0.00 0.00
11:28 pm 23:28 Partly Cloudy with Nearby Thunderstorms 79 26.1 64 17.8 60 60 E 10 17 29.83 1010 10 16 0.00 0.00
11:46 pm 23:46 Mostly Cloudy 79 26.1 64 17.8 60 60 ESE 9 15 29.83 1010 10 16 0.00 0.00
11:53 pm 23:53 Cloudy 79 26.1 64 17.8 60 60 ESE 6 9 29.86 1011 10 16 0.00 0.00

Powered by AerisWeather